Weather in Sosensky

Russia / Kaluga Oblast     54°03′34″N   35°57′57″E
temp.,
°C
wind,
m/s
gust,
m/s
humid.,
%
clouds,
%
prec.,
mm/h
press.,
hPa
HPBL,
m
14 june, mon
mon1400:00+14sse229684 1.1 100919
03:00+14s22959 1.1 101113
06:00+15sse229496 0.0 101277
09:00+20ssw237974 0.0 1013458
12:00+24ssw126031 0.0 10141278
15:00+24ssw016310 1.0 10141084
18:00+22wsw127938 2.6 1014256
21:00+18w118517 2.9 101511
15 june, tue
tue1500:00+16wnw118843 0.0 101511
03:00+15nnw119035 0.0 101411
06:00+17nnw11905 0.0 101533
09:00+21wnw12745 0.0 1014436
12:00+25nw22605 0.0 10131233
15:00+26nw23565 0.3 10111591
18:00+24nnw236937 0.4 1010455
21:00+18wnw118656 2.0 101111
16 june, wed
wed1600:00+16nnw259531 0.0 101179
03:00+15nnw24966 0.0 101176
06:00+15nnw27951 0.0 1012211
09:00+20n457375 0.0 1013516
12:00+22n566292 0.0 10141127
15:00+23n455817 0.1 10141635
18:00+22nnw47662 0.5 1015923
21:00+15n3107765 0.6 1018213
17 june, thu
thu1700:00+13nne368068 0.0 1019109
03:00+11ne22835 0.0 102127
06:00+12nne26800 0.0 1023141
09:00+18ne35590 0.0 1023503
12:00+21ene45470 0.0 10241346
15:00+22ene34470 0.0 10241579
18:00+21e24610 0.0 10241258
21:00+16ene11790 0.0 102511
18 june, fri
fri1800:00+14se01840 0.0 102611
03:00+13ne11852 0.0 102710
06:00+15ene11810 0.0 102739
09:00+20ene12610 0.0 1028440
12:00+23ese22525 0.0 10281418
15:00+24se22516 0.0 10271683
18:00+23s22651 0.0 1026782
21:00+18ssw12802 0.0 102711